User: anonymous   Login
Location: Ferchesar
(52.6477°N, 12.4298°E)
Time: 16:42:53
(UTC+02:00)
Language:

Transit 4A - Orbit

View from above orbital plane
View from above orbital plane
View from above satellite
View from above satellite

Ground track
Ground track

The orbit data is extracted from the following two-line orbital elements,

1 00116U 61015A   21128.71388907 -.00000045  00000-0  24104-4 0  9993
2 00116  66.8076 133.0624 0071239 145.3607 215.2143 13.91788763 37078
Epoch (UTC): 08 May 2021 17:08:00
Eccentricity: 0.0071239
inclination: 66.8076°
perigee height: 870 km
apogee height: 974 km
right ascension of ascending node: 133.0624°
argument of perigee: 145.3607°
revolutions per day: 13.91788763
mean anomaly at epoch: 215.2143°
orbit number at epoch: 3707

The dashed part of the orbit path shows where the satellite is in the earth's shadow,  

DLR